Theta_e
291 289 287 290 289 288 287 285 285 287 291 288 288 288 293 293 290 291 291 291 292 293 296 294 295 295 295 294 295 298 300 299 299 298 297 296 292 292 292 293 294 294 293 292
288 286 292 293 291 289 287 285 285 289 291 289 289 289 292 294 291 293 295 295 294 293 290 292 293 294 297 296 296 299 297 297 299 299 296 294 293 290 289 290 289 289 289 289
288 290 293 292 288 287 285 285 285 287 288 288 286 286 288 291 293 294 294 297 297 293 289 291 292 295 297 295 296 298 298 299 299 294 292 290 289 289 288 287 287 287 287 287
289 292 291 288 288 290 284 289 288 287 285 282 286 282 287 290 291 290 294 295 292 291 290 292 293 294 295 297 298 298 298 297 294 294 292 292 292 289 287 286 286 286 286 286
288 289 289 288 289 291 287 289 288 286 284 281 281 281 284 287 287 291 294 293 292 290 290 291 293 294 296 298 298 297 297 294 292 291 293 293 291 287 286 285 285 285 285 285
289 292 292 292 291 291 291 288 287 284 283 279 283 284 290 286 289 290 291 291 291 289 288 290 291 293 295 295 298 297 295 292 292 291 292 291 286 285 284 284 283 283 284 283
287 288 290 291 288 289 287 286 280 278 277 279 281 281 290 291 291 290 292 290 290 288 287 288 289 293 294 296 296 295 293 290 291 291 289 288 287 286 285 284 283 282 282 281
285 283 289 291 290 288 286 286 281 274 275 278 282 279 285 290 291 291 289 288 287 285 287 287 288 292 295 296 295 293 292 290 290 288 287 287 287 286 285 285 284 283 282 281
283 284 288 289 290 293 285 283 289 282 270 275 280 283 289 290 290 290 290 287 287 285 286 287 288 290 293 294 293 293 291 290 288 287 286 286 286 285 284 284 283 282 281 280
289 284 286 288 290 289 288 290 283 282 275 274 278 280 285 287 288 289 288 288 286 284 285 286 286 288 289 291 291 292 291 290 288 287 287 286 285 285 284 283 281 280 280 279
291 289 284 287 285 286 286 285 286 287 282 275 272 281 286 288 289 289 288 288 286 285 285 284 285 286 288 288 290 290 290 288 287 287 286 285 284 284 283 282 281 280 279 278
292 290 283 284 286 290 288 287 288 284 279 280 279 283 289 289 288 288 288 287 284 284 284 283 283 283 283 285 286 288 288 288 287 287 285 284 283 282 282 280 280 279 278 278
294 287 281 283 286 288 286 287 290 289 286 279 277 284 286 287 288 288 287 285 285 283 283 282 282 283 283 284 284 286 286 287 287 286 284 283 282 282 281 280 279 279 277 277
297 287 284 283 284 287 285 285 288 289 284 282 285 288 290 287 288 289 288 286 285 283 282 282 282 283 284 283 284 284 285 287 286 285 283 282 281 281 280 279 279 278 277 276
294 287 286 286 286 286 285 286 287 286 288 286 289 287 292 293 292 294 293 289 285 283 282 282 282 283 283 283 283 283 284 284 285 283 282 281 281 281 280 279 278 278 277 277
293 286 286 287 286 286 283 286 287 288 289 289 290 288 296 292 291 290 291 290 286 285 284 283 283 283 282 283 283 283 283 283 283 282 281 281 280 279 279 278 278 277 276 276
288 288 285 284 288 286 282 287 288 288 290 289 286 291 295 293 291 293 295 291 289 289 287 284 283 283 284 283 284 283 283 282 282 281 281 280 279 278 278 278 277 276 275 275
289 285 285 284 286 278 286 285 292 290 291 292 292 293 295 294 294 294 292 293 292 290 289 288 285 284 284 284 283 283 282 282 281 281 280 279 279 278 277 277 276 276 275 275
293 288 284 281 281 282 284 283 284 285 287 292 292 294 295 295 287 293 292 293 294 293 292 290 287 284 284 283 283 282 282 282 282 280 279 279 279 278 277 277 276 276 275 274
285 287 285 283 279 277 278 279 283 287 283 282 291 292 292 288 281 291 286 285 287 287 288 287 283 282 283 282 282 282 281 281 281 281 280 279 279 279 277 277 276 276 275 275
279 282 280 282 281 281 285 282 284 281 282 282 286 288 283 285 289 286 283 283 283 285 285 283 281 281 282 282 282 281 281 280 282 281 280 279 280 279 278 277 276 275 275 274
278 278 277 280 279 276 285 284 282 285 281 281 281 284 286 286 285 284 283 283 282 282 283 281 280 280 280 281 282 281 280 282 283 281 280 279 279 279 278 277 276 275 275 273
278 283 277 281 281 286 284 285 285 284 283 281 281 283 285 285 284 283 282 281 281 281 283 282 280 279 279 281 282 280 280 281 281 281 280 279 279 278 278 277 275 274 274 273
278 280 281 281 283 284 284 284 283 282 281 281 280 281 284 284 283 282 281 281 281 280 280 276 277 277 276 276 279 278 278 279 280 279 278 278 278 278 278 278 277 276 274 274
278 280 279 279 283 283 284 284 284 283 282 280 280 282 283 283 279 279 278 279 279 279 275 274 275 276 276 274 274 275 277 279 279 278 277 276 277 277 277 277 277 276 276 277
277 278 278 277 283 284 285 284 284 283 282 281 281 279 280 280 280 278 277 279 276 275 273 273 271 271 270 270 271 269 274 278 277 273 273 275 275 275 276 275 271 281 280 280
Wind_Speed
1 4 8 15 8 3 5 4 5 4 3 4 9 9 17 8 6 11 12 13 16 18 12 8 8 8 7 6 7 8 8 9 8 6 4 4 4 4 5 6 6 9 9 7
4 9 13 4 6 5 3 4 6 7 4 6 9 14 15 16 10 13 18 18 20 13 7 8 9 9 10 9 9 9 8 10 7 5 4 4 5 4 5 4 7 7 8 8
9 5 4 9 4 5 5 7 5 8 5 4 6 10 8 9 10 14 17 21 12 10 10 10 12 15 12 11 10 10 9 9 7 9 8 7 8 6 4 4 6 5 7 8
7 4 6 4 5 9 6 8 6 4 2 6 3 15 7 8 10 6 16 14 8 9 9 11 15 14 15 12 9 10 10 9 8 11 8 12 6 6 4 5 6 6 7 8
8 7 5 5 7 8 6 5 6 2 3 3 3 4 3 3 3 13 10 7 9 9 10 14 17 15 14 12 11 10 10 9 9 7 9 8 9 7 7 7 10 8 7 7
4 1 7 8 3 4 8 7 7 4 1 5 9 8 20 4 7 4 4 1 3 4 7 6 6 9 12 8 10 10 11 10 10 9 9 10 13 13 11 10 9 6 6 5
2 5 3 4 7 4 1 7 2 4 1 9 1 6 16 7 7 5 9 4 7 4 4 6 10 12 13 13 12 10 12 11 12 11 9 11 13 13 13 13 11 11 8 6
8 6 12 8 9 10 9 9 8 8 5 5 1 10 8 9 9 7 3 3 3 1 4 7 7 10 13 14 13 12 12 10 12 11 10 10 12 8 8 9 9 8 7 8
7 7 1 2 2 9 7 6 6 6 2 2 7 8 9 10 11 7 7 5 6 3 5 7 7 10 11 12 12 13 12 10 10 10 10 11 11 12 9 10 7 6 8 7
6 2 0 1 3 4 7 7 4 2 4 7 6 7 11 6 5 6 6 7 5 3 5 6 6 7 7 9 11 11 12 13 12 11 10 10 11 12 11 10 9 9 10 11
6 3 1 3 6 11 5 5 2 6 5 5 3 9 8 9 4 4 6 6 4 5 6 6 6 6 7 6 9 11 13 14 13 12 11 12 10 11 11 11 10 11 11 11
4 4 5 8 1 1 1 6 6 6 6 4 2 16 4 6 5 4 5 4 1 4 5 6 6 6 6 6 7 10 11 13 13 13 12 13 12 13 12 12 12 11 11 10
9 4 2 3 2 3 4 5 11 4 4 9 7 12 1 4 3 3 1 3 5 6 7 7 8 11 11 10 8 11 12 13 13 13 14 14 14 14 12 13 13 12 13 10
1 6 9 12 5 7 7 9 11 14 7 5 20 18 13 4 4 4 5 4 6 7 8 9 9 10 10 11 12 10 10 12 14 14 14 15 15 15 14 13 14 12 12 12
14 8 8 8 2 4 6 9 16 20 26 14 20 17 28 10 11 13 7 8 7 7 9 11 11 11 11 11 10 11 11 10 12 14 15 15 14 14 14 13 13 13 12 11
5 8 9 15 10 10 5 8 19 23 21 19 22 24 21 5 5 5 9 8 7 9 13 11 11 12 14 15 14 12 13 13 14 13 13 14 14 14 15 15 14 11 11 11
4 4 5 16 13 9 11 28 18 12 18 20 22 31 25 14 9 10 15 7 11 14 10 12 15 16 14 16 16 16 13 12 13 13 12 14 14 15 15 13 12 11 11 10
11 4 5 11 11 15 10 2 19 23 21 21 18 24 26 18 12 12 6 9 11 10 12 12 11 12 13 11 12 11 11 12 12 12 12 13 15 15 14 15 14 13 11 12
18 12 8 7 5 3 5 5 8 11 22 24 25 25 27 20 3 17 8 10 11 8 7 9 9 8 11 15 15 15 14 14 14 14 15 15 15 15 15 15 14 10 11 9
4 7 11 8 10 11 5 4 4 7 14 6 18 21 20 3 3 11 1 3 6 7 5 6 7 7 11 11 14 15 15 16 18 16 16 16 16 16 16 15 14 11 10 10
3 5 14 14 12 4 6 3 2 6 8 2 5 6 7 7 6 3 1 0 3 3 4 3 6 7 7 11 13 14 14 16 13 12 13 13 15 15 14 13 10 11 11 9
8 6 5 5 7 8 6 5 6 6 1 2 4 4 5 6 3 3 2 1 1 1 2 4 6 6 7 9 11 10 13 10 11 13 14 14 14 12 12 15 11 11 11 10
5 7 5 6 5 4 6 6 4 3 4 3 1 2 3 4 5 4 2 1 1 1 2 2 6 6 6 8 10 11 8 10 11 13 13 13 13 13 12 13 11 9 9 9
5 5 3 2 4 6 5 5 5 4 3 2 2 2 3 5 5 4 4 3 1 2 2 1 4 5 5 4 6 6 8 9 11 11 11 10 12 13 12 9 10 11 11 11
4 5 5 4 8 4 8 9 5 9 7 4 2 3 5 4 3 4 3 4 3 2 1 1 3 4 6 5 6 7 8 11 11 10 10 10 9 11 10 11 11 11 12 15
6 7 5 5 5 3 6 1 3 6 8 8 6 4 4 4 6 5 5 4 3 3 2 2 2 3 3 3 5 4 6 10 10 7 7 8 9 8 8 8 4 20 19 22
Wind_Direction
39 126 197 210 198 138 139 187 229 242 242 198 230 246 263 235 226 259 245 239 237 226 226 165 170 166 162 166 164 165 153 148 140 136 125 104 102 99 80 72 117 111 110 129
56 233 222 120 159 174 162 214 254 285 228 192 268 255 245 260 223 218 239 240 234 221 172 170 168 170 183 177 180 170 165 161 160 143 111 117 127 85 86 106 88 99 113 116
179 211 161 154 157 160 212 197 221 233 323 255 314 264 231 260 252 246 247 248 254 213 185 182 183 187 184 184 179 171 163 164 152 120 109 99 93 104 92 100 89 86 102 115
238 240 143 167 193 155 236 206 178 216 57 256 8 291 187 225 242 236 249 256 240 194 185 188 186 189 192 185 168 164 162 156 143 146 138 154 152 150 143 132 116 103 98 92
236 169 166 178 204 161 222 129 175 161 194 341 334 283 102 111 262 257 268 259 247 219 189 190 194 190 182 174 168 162 159 146 144 154 159 156 140 114 118 123 119 113 102 104
228 154 165 192 102 161 147 82 53 47 54 274 190 176 286 182 215 271 282 69 326 242 207 186 162 147 171 160 160 158 157 156 153 157 162 157 142 142 142 147 130 137 121 113
144 204 182 147 96 58 108 102 314 329 342 241 344 231 260 297 265 216 261 333 306 285 181 158 152 166 172 167 164 159 162 160 163 163 157 148 146 149 154 151 142 154 138 137
178 272 169 185 177 170 197 166 160 221 215 276 39 241 257 235 274 271 303 280 289 245 168 161 169 170 175 169 165 166 166 162 165 157 150 146 145 148 149 157 154 147 137 129
162 266 250 165 130 154 192 202 159 99 41 30 231 285 291 263 273 301 304 265 284 225 188 174 164 169 169 170 167 164 161 160 161 158 148 151 150 152 152 136 128 124 118 119
201 253 264 163 138 44 154 171 107 44 188 242 284 272 232 274 263 317 338 321 279 192 181 170 168 174 170 161 158 158 165 166 164 158 157 157 155 147 141 131 130 151 133 137
140 163 171 126 208 173 149 194 134 120 160 180 293 258 215 221 202 255 290 293 247 209 197 182 175 172 168 156 164 163 162 161 161 161 159 156 156 147 145 144 149 152 142 144
215 148 200 203 208 343 276 208 156 158 203 232 167 263 187 194 195 234 312 337 238 189 189 174 168 160 161 175 166 171 169 168 168 163 157 158 153 151 155 156 154 148 149 147
163 200 130 331 38 16 222 211 208 113 82 209 153 262 22 244 248 222 280 187 211 184 176 182 175 185 183 182 183 181 175 174 168 163 160 156 159 161 163 160 155 151 144 149
155 175 193 222 198 141 190 197 205 203 200 174 229 255 239 204 278 273 213 207 213 204 193 199 203 197 195 187 182 184 184 177 167 163 163 163 166 166 164 161 154 153 151 151
167 228 200 228 188 175 200 192 196 204 218 201 250 229 255 238 233 247 252 210 193 211 214 212 205 203 195 192 189 181 174 170 169 167 167 172 168 163 158 158 158 157 158 154
290 237 167 249 214 193 226 215 209 213 224 230 253 260 259 202 243 229 233 232 211 216 225 218 205 196 200 196 190 188 179 174 165 172 175 166 163 160 161 156 159 158 152 151
239 220 209 243 230 191 234 230 220 210 223 216 226 241 268 260 229 246 262 200 222 228 214 215 210 203 201 199 186 191 179 160 172 169 173 167 163 163 159 151 150 155 158 157
226 257 258 252 261 233 240 280 227 223 233 229 250 259 261 261 268 264 218 227 245 224 214 223 209 205 198 184 189 160 165 168 174 170 166 168 164 159 152 155 164 166 167 170
228 221 242 247 229 321 316 225 152 175 244 230 229 244 257 268 339 277 218 223 247 269 251 226 201 185 174 176 171 163 167 169 173 178 172 169 165 160 160 170 170 166 163 164
209 229 231 221 241 253 238 254 180 107 251 207 199 225 241 142 189 258 357 325 314 314 273 218 172 156 168 172 162 165 172 175 187 178 176 168 167 165 173 174 166 169 171 173
167 210 232 247 253 256 248 192 166 161 238 187 186 202 171 195 211 168 295 336 324 311 310 130 151 165 163 156 163 173 175 193 180 169 169 170 170 164 169 168 166 165 171 164
180 187 209 211 246 261 155 55 178 219 34 194 215 220 218 236 259 223 211 199 21 32 91 142 139 144 147 149 159 176 194 170 165 160 164 167 168 164 167 170 170 170 170 171
221 199 198 209 215 210 206 220 237 195 172 199 235 271 267 268 222 194 210 188 238 88 101 117 159 153 157 158 165 174 171 158 157 159 164 167 163 166 170 169 170 166 170 177
258 174 186 16 278 256 251 233 237 231 224 191 218 233 210 241 215 193 186 193 174 32 38 56 131 151 156 154 153 151 146 143 153 159 159 163 171 171 170 178 179 180 183 190
198 141 205 255 266 286 256 233 219 225 227 227 219 209 220 225 240 201 181 200 193 155 34 63 159 172 179 158 148 144 144 148 161 165 160 165 171 178 179 189 187 195 202 197
186 187 175 227 238 199 257 277 164 225 218 211 202 233 236 199 212 187 199 198 163 152 148 115 77 107 146 128 126 128 146 156 147 143 157 170 172 176 181 185 197 213 213 213